Regional Weather Roundup
Issued by NWS State College, PA

Home | Current Version | Previous Version | Text Only | Print | Product List | Glossary On
Versions: 1 2 3 4 5 6 7 8 9 10 11 12 13 14 15 16 17 18 19 20 21 22 23 24 25 26 27 28 29 30 31 32 33 34 35 36 37 38 39 40 41 42 43 44 45 46 47 48 49 50
000
ASUS41 KCTP 250803
RWRCTP

REGIONAL WEATHER ROUNDUP
NATIONAL WEATHER SERVICE STATE COLLEGE PA
400 AM EDT WED APR 25 2018

Note: "fair" indicates few or no clouds below 12,000 feet with no
significant weather and/or obstructions to visibility.

* = STATION THAT DOES NOT REPORT PRECIPITATION /E.G. RAIN...SNOW...ETC/
    THUNDER OR FOG.

PAZ002>004-007>009-013>016-020>023-029>032-250900-
WESTERN PENNSYLVANIA

CITY           SKY/WX    TMP DP  RH WIND       PRES   REMARKS
ERIE           LGT RAIN  48  46  93 NE6       29.90F
MEADVILLE      LGT RAIN  49  48  97 VRB5      29.88F
FRANKLIN*      CLOUDY    48  46  93 SE6       29.89F
NEW CASTLE     CLOUDY    50  50 100 E3        29.88F
BEAVER COUNTY  NOT AVBL
BUTLER*        CLOUDY    50  48  93 NE6       29.87F
PITTSBURGH INT CLOUDY    51  49  92 E3        29.85F
PITTSBURGH     CLOUDY    50  49  96 NE3       29.85F
INDIANA*       CLOUDY    50  48  93 SE5G12    29.91F
LATROBE        CLOUDY    52  48  87 CALM      29.86F
WASHINGTON CO* CLOUDY    50  48  93 CALM      29.88F
$$

PAZ004>006-010>012-017>019-024>028-033>037-041-042-045-046-049>053-250900-
CENTRAL PENNSYLVANIA

CITY           SKY/WX    TMP DP  RH WIND       PRES   REMARKS
BRADFORD       CLOUDY    48  45  89 SE8       29.91F
DUBOIS         CLOUDY    48  47  96 E8        29.88F
CLEARFIELD     CLOUDY    48  47  96 NE7       29.91F
JOHNSTOWN      CLOUDY    47  45  93 E5        29.86F
ALTOONA        CLOUDY    50  47  89 NE7       29.89F
STATE COLLEGE  CLOUDY    48  48  99 NE7       29.91F FOG
WILLIAMSPORT   LGT RAIN  50  48  93 E5        29.93F
SELINSGROVE    LGT RAIN  50  48  93 N6        29.93F FOG
FT INDIANTOWN  LGT RAIN  52  51  98 NE7       29.91F
CAPITAL CITY   LGT RAIN  54  32  43 E5        29.90F
HARRISBURG     LGT RAIN  52  51  97 CALM      29.89F FOG
YORK           HVY RAIN  52  52 100 NE5       29.88F FOG
$$

PAZ038>040-043-044-047-048-054-055-060>062-067>071-250900-
EASTERN PENNSYLVANIA

CITY           SKY/WX    TMP DP  RH WIND       PRES   REMARKS
SCRANTON       LGT RAIN  49  48  97 N10       29.97F
MOUNT POCONO   LGT RAIN  46  46 100 E10       29.97F VSB 1/2
ALLENTOWN      RAIN      54  51  90 E13       29.96F FOG
QUAKERTOWN*    CLOUDY    54  54 100 NE6       29.94F FOG
READING        RAIN      55  54  96 E7        29.91F
LANCASTER      HVY RAIN  53  53 100 E10       29.89F FOG
COATESVILLE    LGT RAIN  54  54 100 E12G18    29.91F
POTTSTOWN      LGT RAIN  53  53 100 E6        29.93F FOG
BLUE BELL      CLOUDY    52  52 100 E8        29.94F
DOYLESTOWN     LGT RAIN  53  53 100 VRB3      29.93F FOG
WILLOW GROVE   NOT AVBL
NORTH PHILA    LGT RAIN  57  54  89 E15       29.95F FOG
PHILADELPHIA   LGT RAIN  55  54  96 E10       29.92F FOG
$$




USA.gov is the U.S. government's official web portal to all federal, state and local government web resources and services.